[[{"header":{"parameterUnit":"m.s-1","parameterCategory":1,"la1":30.2991,"la2":30.254,"lo1":-89.0895,"lo2":-89.0444,"dy":0.0017,"dx":0.0017,"nx":28,"ny":28,"refTime":"2025-08-27T09:00:00:Z","depth":0,"parameterNumber":2,"parameterNumberName":"U-component_of_WINDS"},"data":[0,0,0,0,0,0,0,0,0,0,0,0,0,0,0,0,0,0,0,0,0,0,0,0,0,0,0,0,0,0,0,0,0,0,0,0,0,0,0,0,0,0,0,0,0,0,0,0,0,0,0,0,0,0,0,0,0,0,1.0328,1.0328,0,1.0285,1.0285,1.0284,1.0235,1.0234,1.0234,1.0233,1.0189,1.0189,1.0188,0,0,0,0,0,0,0,0,0,0,0,0,0,1.0367,1.0366,1.0328,1.0328,1.0327,1.0285,1.0285,1.0284,1.0235,1.0234,1.0233,1.0233,1.0189,1.0189,1.0188,0,0,0,0,0,0,0,0,0,0,0,0,0,1.034,1.0366,1.0328,1.0298,1.0294,1.0285,1.0285,1.0284,1.0235,1.0234,1.0233,1.0232,1.019,1.0189,1.0188,1.0206,0,0,1.0186,1.0186,0,0,0,0,0,0,0,0,1.0341,1.0338,1.0303,1.03,1.0296,1.0264,1.0282,1.0258,1.0236,1.0258,1.0233,1.0232,1.0215,1.0212,1.0207,1.0204,1.0202,1.0186,1.0186,1.0185,1.0185,0,0,0,0,0,0,0,1.0343,1.034,1.0311,1.0302,1.0298,1.0286,1.0281,1.0277,1.0243,1.0256,1.0252,1.0248,1.0213,1.0207,1.0205,1.0201,1.0186,1.0185,1.0185,1.0185,1.0208,1.0209,0,0,0,0,0,0,1.035,1.0342,1.0312,1.031,1.0316,1.0286,1.028,1.0276,1.0243,1.0237,1.0249,1.0246,1.0209,1.0206,1.0204,1.022,1.0185,1.0185,1.0184,1.0207,1.0208,1.0209,0,0,0,0,0,0,1.0351,1.0348,1.0314,1.0325,1.0319,1.0286,1.0282,1.0275,1.027,1.0238,1.0231,1.0249,1.0208,1.0205,1.0205,1.0217,1.0184,1.0184,1.0205,1.0207,1.0208,1.0254,0,0,0,0,0,0,1.0352,1.0348,1.0355,1.0325,1.0319,1.0317,1.0283,1.0275,1.0268,1.0264,1.0236,1.0231,1.0207,1.0206,1.0204,1.0216,1.0183,1.0204,1.0206,1.0208,1.0251,1.0256,1.0261,0,0,0,0,0,1.0354,1.037,1.0356,1.0352,1.0327,1.0318,1.0314,1.0286,1.027,1.0276,1.0255,1.0232,1.0217,1.0207,1.0204,1.0216,1.0203,1.0206,1.0208,1.0248,1.0255,1.0261,0,0,0,0,0,0,1.0403,1.0366,1.0349,1.0357,1.0341,1.0309,1.0316,1.0295,1.0283,1.028,1.0246,1.024,1.0244,1.023,1.022,1.023,1.0206,1.0208,1.0238,1.0245,1.025,1.0252,1.0182,0,0,0,0,0,1.0414,1.041,1.0378,1.0388,1.038,1.035,1.0345,1.0325,1.0307,1.03,1.0279,1.0262,1.0253,1.0249,1.0239,1.0249,1.0241,1.0256,1.0261,1.0265,1.0267,1.0268,1.0274,1.0217,1.0217,1.0217,0,0,1.0438,1.0418,1.0417,1.0397,1.0382,1.0377,1.0344,1.0342,1.0338,1.0299,1.0297,1.0282,1.0261,1.0265,1.0266,1.0254,1.0281,1.0268,1.0272,1.0271,1.0271,1.0277,1.0281,1.0218,1.0218,1.0218,0,0,1.0479,1.0464,1.0469,1.0455,1.0432,1.0412,1.0413,1.0385,1.0372,1.037,1.034,1.0335,1.0322,1.0307,1.0298,1.0332,1.0309,1.033,1.0357,1.0359,1.0363,1.0367,1.0376,1.0381,1.0332,1.0332,1.0332,0,1.0512,1.0504,1.0475,1.0473,1.0464,1.0428,1.0432,1.042,1.0396,1.039,1.0377,1.0357,1.0341,1.034,1.0348,1.0343,1.0342,1.0332,1.0365,1.0368,1.0371,1.038,1.0384,1.0334,1.0334,1.0334,1.0334,0,1.0544,1.0539,1.0546,1.0522,1.0514,1.0516,1.0485,1.0481,1.0461,1.0442,1.0439,1.0418,1.0402,1.0401,1.0382,1.0397,1.0389,1.0371,1.0347,1.038,1.0387,1.0391,1.0338,1.0337,1.0336,1.0336,0,0,1.0614,1.0573,1.0576,1.0564,1.0536,1.0531,1.0531,1.0515,1.051,1.0495,1.0492,1.0481,1.0463,1.0452,1.0432,1.0434,1.0459,1.0415,1.0413,1.0421,1.047,1.0483,1.0487,1.0444,1.0445,1.0445,1.0471,0,1.0648,1.0644,1.0617,1.062,1.0614,1.058,1.0579,1.0561,1.0543,1.0534,1.0514,1.0505,1.0484,1.0477,1.0477,1.0456,1.0468,1.0454,1.0439,1.0439,1.0444,1.0492,1.0505,1.0531,1.0474,1.0475,1.0475,0,1.0688,1.0673,1.0676,1.0646,1.0642,1.0642,1.0624,1.0617,1.0596,1.0582,1.057,1.0546,1.0542,1.0521,1.0513,1.0504,1.0497,1.0485,1.0486,1.0482,1.0458,1.0487,1.0539,1.0542,1.048,1.048,1.0479,0,1.0735,1.0717,1.0715,1.0707,1.0673,1.0673,1.0658,1.0636,1.0628,1.0612,1.0606,1.0591,1.0582,1.057,1.0542,1.0529,1.0537,1.0514,1.0524,1.0525,1.0526,1.0526,1.0575,1.0525,1.0525,1.0525,1.0525,0,1.0775,1.0777,1.0736,1.0735,1.0736,1.0705,1.0706,1.0689,1.0669,1.0663,1.0634,1.0629,1.0593,1.0584,1.0562,1.0558,1.0555,1.0543,1.0537,1.0544,1.0546,1.0538,1.0534,1.0526,1.0526,1.0526,1.0525,0,1.0828,1.0801,1.0796,1.0764,1.0756,1.0758,1.073,1.0727,1.0707,1.0699,1.0696,1.0664,1.0651,1.0622,1.0603,1.0588,1.0588,1.0579,1.0595,1.0591,1.0602,1.06,1.0646,1.065,1.06,1.06,1.0601,0,1.0854,1.0855,1.0822,1.0816,1.0803,1.0794,1.0784,1.0753,1.0745,1.0719,1.0719,1.0704,1.069,1.0671,1.0646,1.063,1.0618,1.0635,1.0615,1.0622,1.0615,1.0615,1.0614,1.0639,1.064,1.064,1.0641,0,1.0902,1.0888,1.0876,1.0859,1.0849,1.0834,1.0817,1.0814,1.0778,1.077,1.0757,1.0746,1.0724,1.0709,1.0689,1.0673,1.0651,1.0647,1.0648,1.0655,1.0664,1.0657,1.0605,1.0646,1.0646,1.0645,1.0645,1.0645,1.0941,1.0939,1.0915,1.0902,1.0886,1.0871,1.0866,1.0845,1.0833,1.0813,1.0795,1.0782,1.0759,1.073,1.0716,1.0705,1.0694,1.0696,1.0696,1.0696,1.0699,1.0667,1.0701,1.0701,1.0701,1.0701,1.0701,0,1.0986,1.0968,1.0957,1.0934,1.0923,1.0903,1.0883,1.0875,1.0865,1.0845,1.0832,1.0815,1.08,1.0772,1.0754,1.0751,1.074,1.0747,1.0746,1.0742,1.0711,1.0711,1.0756,1.0756,1.0756,1.0756,1.0756,1.0756,1.1007,1.1002,1.0986,1.0972,1.0955,1.0942,1.0932,1.0917,1.0901,1.0884,1.087,1.0853,1.083,1.0809,1.0794,1.0786,1.078,1.079,1.0779,1.075,1.0745,1.074,1.0739,1.0789,1.0789,1.081,1.0811,1.0811]},{"header":{"parameterUnit":"m.s-1","parameterCategory":1,"la1":30.2991,"la2":30.254,"lo1":-89.0895,"lo2":-89.0444,"dy":0.0017,"dx":0.0017,"nx":28,"ny":28,"refTime":"2025-08-27T09:00:00:Z","depth":0,"parameterNumber":3,"parameterNumberName":"V-component_of_WINDS"},"data":[0,0,0,0,0,0,0,0,0,0,0,0,0,0,0,0,0,0,0,0,0,0,0,0,0,0,0,0,0,0,0,0,0,0,0,0,0,0,0,0,0,0,0,0,0,0,0,0,0,0,0,0,0,0,0,0,0,0,4.2968,4.2968,0,4.3009,4.3009,4.301,4.2957,4.2956,4.2954,4.2952,4.299,4.2993,4.2995,0,0,0,0,0,0,0,0,0,0,0,0,0,4.2839,4.2842,4.2968,4.2968,4.2969,4.3009,4.3009,4.301,4.2958,4.2955,4.2953,4.2951,4.2989,4.2992,4.2996,0,0,0,0,0,0,0,0,0,0,0,0,0,4.2889,4.2842,4.2968,4.2948,4.2946,4.3008,4.3009,4.301,4.2958,4.2955,4.2953,4.295,4.2988,4.2992,4.2996,4.3079,0,0,4.3009,4.3011,0,0,0,0,0,0,0,0,4.2886,4.2894,4.295,4.2949,4.2948,4.2975,4.2978,4.3033,4.2959,4.2954,4.2952,4.2949,4.2987,4.2991,4.3005,4.308,4.3082,4.3009,4.3012,4.3014,4.3015,0,0,0,0,0,0,0,4.2883,4.2891,4.2984,4.2951,4.295,4.2935,4.2939,4.2988,4.2986,4.2954,4.295,4.2956,4.2986,4.3001,4.3005,4.3083,4.3009,4.3013,4.3015,4.3017,4.3224,4.3227,0,0,0,0,0,0,4.2882,4.2889,4.2982,4.2985,4.2909,4.294,4.2944,4.2969,4.2985,4.2985,4.2958,4.2953,4.2995,4.3001,4.3007,4.3101,4.3014,4.3017,4.302,4.3221,4.3225,4.3228,0,0,0,0,0,0,4.288,4.2891,4.2981,4.2936,4.2946,4.2945,4.2973,4.2971,4.2987,4.2988,4.2987,4.2975,4.2993,4.3001,4.3061,4.3102,4.3019,4.3023,4.3218,4.3222,4.3226,4.3293,0,0,0,0,0,0,4.2876,4.289,4.2923,4.2937,4.2949,4.3036,4.2976,4.2974,4.2994,4.2988,4.3003,4.3003,4.2992,4.3055,4.3065,4.3106,4.3026,4.3214,4.322,4.3225,4.3287,4.33,4.331,0,0,0,0,0,4.2872,4.294,4.2925,4.2937,4.299,4.3038,4.3045,4.3031,4.2998,4.3029,4.303,4.3003,4.3097,4.3061,4.3072,4.3116,4.3211,4.3218,4.3224,4.3282,4.3297,4.331,0,0,0,0,0,0,4.293,4.2942,4.2925,4.3001,4.3019,4.303,4.3069,4.3048,4.3075,4.3068,4.3049,4.3053,4.3116,4.3122,4.3083,4.3194,4.3148,4.3157,4.3188,4.3202,4.3213,4.3209,4.303,0,0,0,0,0,4.2953,4.2992,4.3,4.3065,4.3076,4.3071,4.3092,4.308,4.3097,4.3104,4.311,4.3127,4.3159,4.3182,4.3212,4.3289,4.3289,4.3324,4.3335,4.3344,4.3352,4.3389,4.3403,4.325,4.325,4.325,0,0,4.2998,4.3009,4.3035,4.3077,4.309,4.3129,4.3078,4.3123,4.3151,4.3111,4.3167,4.3172,4.3189,4.3257,4.3287,4.3263,4.3394,4.3353,4.336,4.3362,4.3397,4.3412,4.3425,4.3255,4.3254,4.3253,0,0,4.31,4.3114,4.3168,4.3182,4.3202,4.3199,4.3212,4.3225,4.3227,4.3283,4.3253,4.3286,4.3344,4.3357,4.3371,4.3476,4.345,4.3487,4.3545,4.3582,4.3594,4.3604,4.3639,4.3652,4.3495,4.3495,4.3495,0,4.3153,4.3213,4.3199,4.3245,4.3263,4.323,4.3283,4.3297,4.3326,4.3338,4.3312,4.3383,4.3392,4.3461,4.3486,4.35,4.3512,4.3484,4.3593,4.3604,4.3613,4.3646,4.3659,4.3499,4.3498,4.3498,4.3498,0,4.3275,4.3317,4.3359,4.3387,4.341,4.346,4.3452,4.3477,4.3462,4.3461,4.3517,4.3527,4.3558,4.3574,4.3561,4.364,4.3625,4.3597,4.3549,4.3632,4.3662,4.3675,4.3505,4.3503,4.3502,4.3501,0,0,4.3415,4.3435,4.345,4.3461,4.348,4.3511,4.3558,4.3589,4.3609,4.363,4.3667,4.3716,4.369,4.3706,4.3694,4.3727,4.3805,4.3694,4.3694,4.3711,4.3889,4.3908,4.3923,4.3789,4.3792,4.3793,4.3887,0,4.3515,4.3597,4.3585,4.3663,4.37,4.3668,4.3708,4.3723,4.3723,4.3752,4.3751,4.3785,4.3749,4.3758,4.379,4.3789,4.384,4.3782,4.382,4.3822,4.3814,4.3939,4.396,4.4047,4.3899,4.3901,4.3902,0,4.3642,4.3667,4.3749,4.376,4.3775,4.3811,4.3837,4.3867,4.3882,4.3879,4.3897,4.3878,4.3922,4.3876,4.3936,4.3897,4.3912,4.3914,4.3917,4.3917,4.3865,4.394,4.4075,4.4087,4.3921,4.392,4.3918,0,4.3731,4.3786,4.3841,4.3852,4.3867,4.3893,4.39,4.3913,4.3931,4.3954,4.3965,4.3993,4.4007,4.4027,4.4016,4.3984,4.4076,4.403,4.4073,4.4073,4.4091,4.409,4.4227,4.4106,4.4106,4.4106,4.4106,0,4.3842,4.3892,4.3881,4.3915,4.3969,4.3955,4.4009,4.4012,4.4023,4.4055,4.403,4.4061,4.4045,4.4073,4.4065,4.4113,4.4121,4.4118,4.4114,4.4119,4.4119,4.4126,4.4119,4.4109,4.4109,4.4108,4.4107,0,4.395,4.3945,4.4002,4.4012,4.4015,4.4055,4.4062,4.4092,4.409,4.413,4.4139,4.4135,4.4167,4.4158,4.4193,4.4187,4.4248,4.4238,4.4243,4.4239,4.4281,4.4276,4.4426,4.4444,4.4314,4.4316,4.4317,0,4.402,4.4058,4.4071,4.4091,4.41,4.4133,4.4151,4.4138,4.4157,4.4177,4.4204,4.4234,4.4257,4.431,4.4309,4.4335,4.4324,4.4375,4.4327,4.433,4.4321,4.4317,4.432,4.4383,4.4385,4.4386,4.4387,0,4.4143,4.4138,4.4166,4.4192,4.4215,4.4235,4.4253,4.4271,4.4258,4.4281,4.4314,4.4332,4.4368,4.4397,4.442,4.4426,4.4403,4.4402,4.4413,4.4416,4.4416,4.4413,4.4265,4.4398,4.4397,4.4396,4.4396,4.4395,4.4231,4.4262,4.4276,4.4307,4.4319,4.4336,4.4364,4.4365,4.4392,4.442,4.441,4.4447,4.4459,4.4488,4.4497,4.4524,4.4505,4.4521,4.4525,4.4528,4.4532,4.4414,4.4529,4.4529,4.4528,4.4528,4.4528,0,4.435,4.4357,4.4386,4.4411,4.4435,4.4413,4.4431,4.4452,4.4485,4.4499,4.4522,4.4558,4.4586,4.4587,4.4613,4.4634,4.4624,4.4641,4.4638,4.4639,4.455,4.4536,4.4648,4.4648,4.4648,4.4648,4.4648,4.4648,4.4414,4.4465,4.4461,4.4516,4.4522,4.4558,4.457,4.4584,4.4595,4.4636,4.466,4.466,4.4668,4.4694,4.4718,4.4717,4.4726,4.4746,4.4742,4.4658,4.4646,4.4634,4.4621,4.4749,4.4749,4.4828,4.4829,4.4829]}]]